Location: Unspecified
(35.7250°N, 0.0000°E)
Time: 13:38:36
(UTC+00:00)

Explorer 7 - Pass Details

Date: 21 August 2020
Orbit: 485 x 679 km, 50.3° (Epoch: 21 September)

Event Time Altitude Azimuth Distance (km) Brightness Sun altitude
Rises 21:14:40 0° 313° (NW) 2,625 11.6 -28.1°
Reaches altitude 10° 21:16:58 10° 320° (NW) 1,713 10.3 -28.5°
Enters shadow 21:18:55 26° 334° (NNW) 1,006 8.7 -28.8°
